FW2218 Weather Reports


Display with metric or nautical units.
time (UTC)temp
F
wind
direction
speed
MPH
gust
MPH
rain 1hr
in
rain 24hr
in
rain mn
in
humidity
%
barometer
mb
20260906203032 65 313 2.0 5.0 0.00 0.18 0.18 73 1011.5
20260906201609 65 300 2.0 5.0 0.00 0.18 0.18 75 1011.5
20260906200152 63 284 2.0 5.0 0.00 0.18 0.18 77 1011.6
20260906194529 63 323 2.0 5.0 0.00 0.18 0.18 79 1011.7
20260906193033 61 309 1.0 4.0 0.00 0.18 0.18 82 1011.7
20260906191606 60 320 1.0 4.0 0.00 0.18 0.18 84 1011.8
20260906190031 60 356 1.0 3.0 0.00 0.18 0.18 86 1011.9
20260906181606 60 224 0.0 2.0 0.00 0.18 0.18 86 1012.0
20260906180029 59 267 0.0 1.0 0.00 0.18 0.18 87 1011.9
20260906174530 59 270 0.0 2.0 0.00 0.18 0.18 88 1011.9
20260906173106 58 271 1.0 5.0 0.00 0.18 0.18 90 1012.0
20260906171530 58 315 1.0 4.0 0.00 0.18 0.18 91 1011.9
20260906170056 58 316 0.0 4.0 0.00 0.18 0.18 92 1011.9
20260906163029 57 247 0.0 0.0 0.00 0.18 0.18 92 1011.8
20260906161532 57 247 0.0 0.0 0.01 0.18 0.18 92 1011.7
20260906154530 56 247 0.0 2.0 0.07 0.18 0.18 92 1011.6
20260906153031 56 252 0.0 4.0 0.10 0.18 0.17 92 1011.6
20260906151529 56 257 2.0 6.0 0.12 0.17 0.15 92 1011.6
20260906150030 56 312 1.0 4.0 0.12 0.15 0.11 91 1011.4
20260906143028 56 79 0.0 4.0 0.06 0.08 0.05 91 1011.3
20260906134527 56 90 2.0 3.0 0.03 0.03 0.02 88 1010.5
20260906133030 56 104 3.0 4.0 0.02 0.02 0.01 88 1010.2
20260906131530 57 112 3.0 4.0 0.01 0.01 0.01 86 1010.2
20260906130030 57 112 3.0 4.0 0.01 0.01 0.00 84 1010.3
20260906124532 57 112 2.0 3.0 0.00 0.00 0.00 84 1010.3
20260906123030 57 112 0.0 2.0 0.00 0.00 0.00 84 1010.2
20260906120033 57 112 2.0 4.0 0.00 0.00 0.00 83 1010.5
20260906114536 57 112 2.0 4.0 0.00 0.00 0.00 83 1010.5
20260906113108 58 200 0.0 3.0 0.00 0.00 0.00 83 1010.4
20260906111528 58 172 2.0 3.0 0.00 0.00 0.00 83 1010.4
20260906110031 57 139 3.0 5.0 0.00 0.00 0.00 84 1010.4
20260906104526 57 268 0.0 4.0 0.00 0.00 0.00 85 1010.4
20260906101532 57 358 1.0 3.0 0.00 0.00 0.00 83 1010.6
20260906100030 57 353 1.0 4.0 0.00 0.00 0.00 82 1010.7
20260906094532 58 22 0.0 3.0 0.00 0.00 0.00 81 1010.8
20260906093028 58 110 2.0 4.0 0.00 0.00 0.00 79 1010.9
20260906090106 58 27 3.0 7.0 0.00 0.00 0.00 79 1010.5
20260906084531 59 191 2.0 8.0 0.00 0.00 0.00 74 1010.5
20260906083029 59 117 5.0 9.0 0.00 0.00 0.00 75 1010.6
20260906081531 59 81 2.0 7.0 0.00 0.00 0.00 77 1010.5
20260906073037 60 70 1.0 3.0 0.00 0.00 0.00 76 1010.7
20260906060035 60 112 1.0 3.0 0.00 0.00 0.00 71 1010.8
20260906054531 60 112 1.0 2.0 0.00 0.00 0.00 70 1010.9
20260906051534 60 112 2.0 4.0 0.00 0.00 0.00 69 1011.0
20260906050031 61 112 1.0 3.0 0.00 0.00 0.00 67 1011.0
20260906044535 62 197 0.0 2.0 0.00 0.00 0.00 65 1011.0
20260906041540 64 202 2.0 4.0 0.00 0.00 0.00 61 1010.9
20260906040029 64 197 1.0 5.0 0.00 0.00 0.00 62 1010.8
20260906034531 64 189 2.0 4.0 0.00 0.00 0.00 62 1010.7
20260906033028 63 206 2.0 4.0 0.00 0.00 0.00 63 1010.5
20260906031530 64 225 3.0 5.0 0.00 0.00 0.00 62 1010.4
20260906030029 64 220 2.0 4.0 0.00 0.00 0.00 61 1010.4
20260906024532 65 222 2.0 4.0 0.00 0.00 0.00 60 1010.2
20260906023029 66 237 3.0 7.0 0.00 0.00 0.00 57 1010.1
20260906020038 67 245 5.0 9.0 0.00 0.00 0.00 55 1010.0
20260906014609 69 259 3.0 6.0 0.00 0.00 0.00 54 1010.0
20260906013030 69 281 4.0 8.0 0.00 0.00 0.00 53 1010.2
20260906011531 69 277 4.0 8.0 0.00 0.00 0.00 53 1010.3
20260906010144 68 250 5.0 11.0 0.00 0.00 0.00 55 1010.4
20260906004532 69 252 6.0 14.0 0.00 0.00 0.00 52 1010.4
20260906001530 74 259 7.0 14.0 0.00 0.00 0.00 43 1010.1
20260906000031 75 285 5.0 12.0 0.00 0.00 0.00 41 1010.0
20260905233031 74 330 4.0 8.0 0.00 0.00 0.00 41 1010.1
20260905231529 74 11 4.0 9.0 0.00 0.01 0.00 41 1010.1
20260905230037 73 356 4.0 8.0 0.00 0.01 0.00 42 1010.2
20260905224534 74 342 6.0 10.0 0.00 0.01 0.00 43 1010.1
20260905223031 75 350 4.0 12.0 0.00 0.01 0.00 43 1010.3
20260905221537 75 10 4.0 10.0 0.00 0.01 0.00 43 1010.4
20260905220033 75 29 4.0 12.0 0.00 0.01 0.00 43 1010.7
20260905214645 74 343 4.0 9.0 0.00 0.01 0.00 46 1010.8
20260905213105 73 8 2.0 9.0 0.00 0.01 0.00 47 1011.1
20260905211609 73 112 1.0 4.0 0.00 0.01 0.00 46 1011.2
20260905210047 74 302 2.0 6.0 0.00 0.01 0.00 49 1011.2
20260905204528 74 307 3.0 8.0 0.00 0.01 0.00 48 1011.3